Total_Precipitation_Accumulation
3.22 3.26 3.18 3.32 3.23 3.44 3.89 4.49 4.36 4.51 4.38 3.92 3.42 3.31 3.41 3.24 3.19 3.12 2.65 2.56 2.77 2.86 2.97 3.05 3.08 3.07 3.10 2.98 2.74 2.55 2.34 2.18 1.92 1.63 1.37 1.30 1.41 1.41 1.30 1.18 1.11 1.02 0.94
3.01 3.03 3.03 3.31 3.30 3.19 3.37 3.86 4.02 4.45 4.40 3.98 3.37 3.07 3.10 3.19 3.07 2.96 2.76 2.69 2.74 2.60 2.71 3.12 3.48 3.64 3.57 3.40 3.20 2.95 2.66 2.48 2.19 1.79 1.56 1.43 1.29 1.29 1.33 1.22 1.16 1.11 0.98
2.72 2.74 2.86 2.91 2.94 2.84 3.00 3.23 3.45 3.74 3.65 3.46 3.35 3.11 2.99 2.90 2.71 2.79 2.83 2.72 2.43 2.58 2.69 2.94 3.29 3.56 3.80 3.99 3.90 3.62 3.26 2.81 2.40 2.01 1.71 1.49 1.32 1.18 1.14 1.13 1.14 1.09 0.94
2.20 2.36 2.42 2.40 2.44 2.33 2.49 2.90 2.95 3.18 3.35 3.34 3.49 3.20 2.96 3.01 2.77 2.73 2.71 2.76 2.78 2.44 2.74 2.88 3.05 3.22 3.59 3.98 4.24 4.33 3.90 3.24 2.68 2.29 1.95 1.64 1.44 1.24 1.08 1.00 1.02 1.04 0.93
2.09 2.26 2.43 2.45 2.10 2.13 2.31 2.13 2.60 2.87 3.06 3.08 2.64 2.76 2.50 2.54 2.51 2.19 2.29 2.26 2.52 2.59 2.79 2.71 2.91 2.96 3.31 4.09 4.70 4.96 4.74 3.98 3.22 2.77 2.50 2.15 1.88 1.57 1.28 1.10 1.00 0.95 0.87
2.14 2.49 2.33 2.16 1.95 2.29 2.60 2.67 3.00 2.92 2.77 2.80 2.28 2.36 2.18 2.02 2.12 2.02 1.90 2.00 2.15 2.12 2.51 2.71 2.80 2.50 2.84 3.70 4.43 4.80 5.05 4.89 4.17 3.47 3.13 2.90 2.66 2.19 1.65 1.34 1.14 1.03 0.94
2.28 2.65 2.39 2.68 2.34 2.38 2.54 2.61 2.86 2.79 2.48 2.42 2.81 2.84 2.24 1.78 1.85 1.74 1.68 1.89 1.88 2.01 2.42 2.75 2.93 2.91 2.72 2.60 2.84 3.52 4.37 5.07 5.13 4.43 3.83 3.54 3.32 2.75 2.05 1.73 1.54 1.33 1.21
2.25 2.32 2.68 2.46 2.50 2.62 2.64 2.74 2.91 2.91 2.61 2.55 2.96 3.31 2.90 2.77 2.38 1.61 1.68 1.82 1.83 2.07 2.15 2.19 2.51 2.96 2.86 2.94 2.25 2.15 3.09 3.93 4.85 4.96 4.45 3.95 3.71 3.21 2.54 2.17 1.88 1.66 1.51
1.95 2.15 2.33 2.34 2.57 2.37 2.73 2.96 2.91 3.02 3.01 2.82 2.88 3.31 3.32 3.17 2.65 2.05 1.66 1.63 1.85 2.24 2.25 2.29 2.14 2.47 2.79 3.13 3.01 2.37 2.34 2.56 3.50 4.60 4.87 4.34 3.68 3.21 2.85 2.66 2.42 2.06 1.83
1.95 2.03 2.18 2.47 2.63 2.36 2.91 2.50 2.64 2.91 3.07 2.88 2.87 2.73 2.84 3.06 3.12 2.83 2.25 1.76 1.74 1.97 2.20 2.03 2.04 2.41 2.73 2.86 2.95 2.30 1.90 1.82 2.48 3.61 4.41 4.50 4.01 3.40 2.98 2.93 3.09 2.96 2.54
1.97 1.86 2.15 2.42 2.53 2.41 2.57 2.63 2.91 2.81 2.76 2.76 2.84 2.92 3.04 2.99 2.73 2.87 2.79 2.42 2.10 1.65 1.56 1.72 2.01 2.21 2.43 2.70 3.00 2.41 1.93 1.84 1.96 2.37 2.96 3.52 3.73 3.54 3.27 3.32 3.70 3.90 3.63
2.00 1.92 2.11 2.41 2.37 2.39 2.57 2.55 2.72 2.72 2.78 2.88 2.73 2.68 2.92 2.90 2.79 2.87 2.57 2.38 2.27 1.64 1.40 1.44 1.64 2.03 2.21 2.43 2.52 2.13 2.03 2.23 2.18 2.15 2.15 2.36 2.79 3.08 3.19 3.36 3.69 4.15 4.39
2.02 2.08 2.22 2.50 2.40 2.46 2.52 2.76 2.86 2.78 2.77 2.80 2.65 2.51 2.50 2.39 2.51 2.70 2.84 2.47 2.20 1.70 1.69 1.50 1.58 1.79 1.84 2.33 2.69 2.58 2.22 2.32 2.19 2.13 2.12 2.07 2.21 2.44 2.57 2.77 3.10 3.55 4.00
2.04 1.96 2.11 2.14 2.13 2.23 2.30 2.81 2.66 2.61 2.70 2.62 2.36 2.64 2.53 2.17 2.29 2.47 2.81 3.05 2.75 2.28 2.23 2.01 1.83 1.88 1.99 2.34 2.62 2.73 2.26 2.21 1.99 1.90 1.86 1.82 1.80 1.88 1.99 2.10 2.23 2.42 2.69
2.02 1.95 1.90 1.95 2.01 2.18 2.35 2.55 2.48 2.57 2.77 2.61 2.51 2.68 2.47 2.23 2.21 2.17 2.53 2.98 3.31 3.06 2.64 2.33 2.12 2.09 2.19 2.31 2.55 2.33 2.36 2.37 2.13 1.90 1.70 1.64 1.60 1.57 1.57 1.66 1.80 1.84 1.83
1.87 1.94 2.01 2.01 2.06 2.14 2.35 2.56 2.56 2.70 2.79 2.66 2.66 2.73 2.58 2.34 2.42 2.26 2.33 2.68 3.00 3.20 2.87 2.14 2.12 2.03 2.14 2.07 2.44 2.26 2.40 2.40 2.07 1.86 1.66 1.57 1.50 1.45 1.45 1.48 1.53 1.61 1.65
1.93 1.93 2.03 2.09 2.11 2.14 2.32 2.50 2.41 2.66 2.79 2.83 2.65 2.62 2.59 2.62 2.63 2.48 2.56 2.67 2.74 3.07 3.07 2.43 2.26 2.34 2.44 2.42 2.47 2.34 2.23 2.22 2.04 1.97 1.71 1.54 1.44 1.38 1.37 1.35 1.37 1.36 1.40
2.03 2.02 2.10 2.19 2.16 2.20 2.36 2.36 2.21 2.32 2.52 2.73 2.94 3.06 2.81 2.82 2.85 2.68 2.69 2.68 2.73 2.98 3.03 2.82 2.61 2.56 2.61 2.55 2.56 2.37 2.00 1.90 1.98 2.15 1.93 1.67 1.51 1.40 1.33 1.29 1.27 1.25 1.27
2.30 2.28 2.35 2.28 2.30 2.37 2.36 2.28 2.31 2.34 2.44 2.52 2.76 3.01 2.99 3.14 2.90 2.93 2.87 2.74 2.74 2.76 2.95 2.79 2.59 2.75 2.76 2.71 2.64 2.25 2.06 2.15 1.96 2.21 2.13 1.79 1.58 1.47 1.34 1.23 1.16 1.13 1.13
2.46 2.46 2.50 2.43 2.39 2.43 2.44 2.45 2.46 2.43 2.48 2.45 2.50 2.62 2.73 3.01 2.98 3.03 2.87 2.89 3.03 3.09 3.21 3.05 2.86 2.94 3.06 3.07 2.93 2.54 2.39 2.29 2.16 1.97 2.10 1.88 1.72 1.61 1.46 1.30 1.20 1.13 1.13
2.51 2.68 2.67 2.59 2.60 2.60 2.39 2.54 2.76 2.73 2.79 2.58 2.48 2.44 2.41 2.65 2.72 2.79 2.53 2.72 3.02 3.09 3.16 3.10 2.98 2.99 2.99 3.16 2.90 2.70 2.53 2.51 2.41 2.14 2.06 1.81 1.70 1.56 1.52 1.51 1.40 1.27 1.19
2.88 2.80 2.69 2.75 2.75 2.51 2.64 2.72 2.64 2.69 2.90 2.88 2.74 2.66 2.52 2.46 2.45 2.48 2.51 2.57 2.74 2.76 2.83 2.93 2.84 2.82 2.87 3.02 3.20 3.07 2.87 2.66 2.40 2.13 2.17 1.92 1.77 1.69 1.53 1.40 1.52 1.46 1.32
2.94 2.82 2.81 2.86 2.80 2.83 2.80 2.57 2.44 2.44 2.54 2.64 2.70 2.68 2.38 2.23 2.45 2.36 2.52 2.53 2.34 2.27 2.29 2.44 2.45 2.45 2.89 3.21 3.53 3.21 3.04 2.85 2.55 2.37 2.31 1.97 1.81 1.74 1.58 1.54 1.69 1.49 1.32
3.01 2.97 2.91 2.78 2.71 2.62 2.66 2.42 2.41 2.30 2.25 2.20 2.34 2.46 2.39 2.27 2.32 2.43 2.34 2.10 1.88 1.87 1.93 1.85 1.88 2.14 2.59 3.16 3.47 3.43 3.43 3.17 2.81 2.41 2.22 1.94 1.72 1.63 1.51 1.55 1.75 1.64 1.46
2.95 2.79 2.69 2.66 2.61 2.67 2.90 2.61 2.46 2.24 2.22 2.07 2.07 2.08 2.10 1.97 2.12 2.23 2.12 1.90 1.74 1.68 1.72 1.75 1.74 1.95 2.22 2.57 3.00 3.22 3.11 2.92 2.51 2.09 1.95 1.83 1.70 1.72 1.65 1.56 1.56 1.72 1.58
3.20 3.16 3.03 2.95 2.85 2.80 3.02 2.75 2.54 2.28 2.25 2.18 2.19 2.16 2.20 1.95 1.86 1.82 1.75 1.77 1.59 1.50 1.63 1.62 1.58 1.62 1.75 2.07 2.53 2.62 2.64 2.73 2.44 2.09 1.81 1.85 1.75 1.95 1.88 1.60 1.48 1.50 1.50